English version Home page |
Updated on November 27, 2024 |
プロフィール |
軌道要素Epoch 2024 Oct. 17.0 TT = JDT 2460600.5 T 2025 May 16.89797 TT Rudenko q 2.2717279 (2000.0) P Q n 0.13416475 Peri. 45.77052 -0.46795921 -0.85644759 a 3.7790017 Node 73.30531 +0.73204135 -0.51382993 e 0.3988550 Incl. 13.15368 +0.49510569 -0.04976267 P 7.35 From 478 observations 1995 Dec. 22-2024 Oct. 1, mean residual 0".7.
|
光度変化m1 = 12.0 + 5 logΔ + 15.0 log r(t - 110)
|
軌道要素はM.P.E.C. 2024-T138に掲載されたものです。
|